Time,TemperatureF,DewpointF,PressureIn,WindDirection,WindDirectionDegrees,WindSpeedMPH,WindSpeedGustMPH,Humidity,HourlyPrecipIn,Conditions,Clouds,dailyrainin,SoftwareType,DateUTC
2013-07-01 00:03:00,64.7,52.0,30.27,West,261,5.0,-999.0,64,-99.99,,,0.00,weatherlink.com 1.10,2013-07-01 06:03:00,
2013-07-01 00:18:00,64.4,52.0,30.27,WSW,257,7.0,-999.0,65,-99.99,,,0.00,weatherlink.com 1.10,2013-07-01 06:18:00,
2013-07-01 00:33:00,64.2,52.0,30.26,WSW,253,9.0,-999.0,65,-99.99,,,0.00,weatherlink.com 1.10,2013-07-01 06:33:00,
2013-07-01 00:48:00,64.0,52.0,30.26,WSW,248,9.0,-999.0,65,-99.99,,,0.00,weatherlink.com 1.10,2013-07-01 06:48:00,
2013-07-01 01:03:00,63.9,52.0,30.27,West,275,7.0,-999.0,66,-99.99,,,0.00,weatherlink.com 1.10,2013-07-01 07:03:00,
2013-07-01 01:18:00,63.9,52.0,30.26,WSW,248,6.0,-999.0,65,-99.99,,,0.00,weatherlink.com 1.10,2013-07-01 07:18:00,
2013-07-01 01:33:00,63.8,52.0,30.26,WSW,256,9.0,-999.0,65,-99.99,,,0.00,weatherlink.com 1.10,2013-07-01 07:33:00,
2013-07-01 01:48:00,63.6,52.0,30.26,West,271,6.0,-999.0,65,-99.99,,,0.00,weatherlink.com 1.10,2013-07-01 07:48:00,
2013-07-01 02:03:00,63.4,52.0,30.26,WNW,292,5.0,-999.0,66,-99.99,,,0.00,weatherlink.com 1.10,2013-07-01 08:03:00,
2013-07-01 02:18:00,63.2,52.0,30.25,West,261,6.0,-999.0,66,-99.99,,,0.00,weatherlink.com 1.10,2013-07-01 08:18:00,
2013-07-01 02:33:00,63.0,51.0,30.25,WSW,258,4.0,-999.0,65,-99.99,,,0.00,weatherlink.com 1.10,2013-07-01 08:33:00,
2013-07-01 02:48:00,62.5,51.0,30.25,WNW,296,3.0,-999.0,66,-99.99,,,0.00,weatherlink.com 1.10,2013-07-01 08:48:00,
2013-07-01 03:03:00,61.7,51.0,30.26,NNW,337,1.0,-999.0,69,-99.99,,,0.00,weatherlink.com 1.10,2013-07-01 09:03:00,
2013-07-01 03:18:00,60.5,52.0,30.26,NNW,338,2.0,-999.0,73,-99.99,,,0.00,weatherlink.com 1.10,2013-07-01 09:18:00,
2013-07-01 03:33:00,59.6,51.0,30.26,NNW,330,0.0,-999.0,74,-99.99,,,0.00,weatherlink.com 1.10,2013-07-01 09:33:00,
2013-07-01 03:48:00,58.6,52.0,30.27,NW,310,1.0,-999.0,79,-99.99,,,0.00,weatherlink.com 1.10,2013-07-01 09:48:00,
2013-07-01 04:03:00,58.1,51.0,30.27,NW,309,0.0,-999.0,76,-99.99,,,0.00,weatherlink.com 1.10,2013-07-01 10:03:00,
2013-07-01 04:18:00,57.5,50.0,30.28,West,275,4.0,-999.0,76,-99.99,,,0.00,weatherlink.com 1.10,2013-07-01 10:18:00,
2013-07-01 04:33:00,57.2,50.0,30.27,WSW,249,4.0,-999.0,77,-99.99,,,0.00,weatherlink.com 1.10,2013-07-01 10:33:00,
2013-07-01 04:48:00,56.7,50.0,30.27,WSW,249,0.0,-999.0,78,-99.99,,,0.00,weatherlink.com 1.10,2013-07-01 10:48:00,
2013-07-01 05:03:00,55.9,49.0,30.27,WSW,257,2.0,-999.0,78,-99.99,,,0.00,weatherlink.com 1.10,2013-07-01 11:03:00,
2013-07-01 05:18:00,55.9,50.0,30.28,WSW,249,4.0,-999.0,79,-99.99,,,0.00,weatherlink.com 1.10,2013-07-01 11:18:00,
2013-07-01 05:33:00,55.4,50.0,30.28,WSW,253,2.0,-999.0,81,-99.99,,,0.00,weatherlink.com 1.10,2013-07-01 11:33:00,
2013-07-01 05:48:00,55.1,49.0,30.28,WSW,250,3.0,-999.0,80,-99.99,,,0.00,weatherlink.com 1.10,2013-07-01 11:48:00,
2013-07-01 06:03:00,55.8,50.0,30.28,WSW,254,5.0,-999.0,80,-99.99,,,0.00,weatherlink.com 1.10,2013-07-01 12:03:00,
2013-07-01 06:18:00,57.1,50.0,30.28,WSW,244,2.0,-999.0,76,-99.99,,,0.00,weatherlink.com 1.10,2013-07-01 12:18:00,
2013-07-01 06:33:00,57.6,50.0,30.29,WSW,243,4.0,-999.0,75,-99.99,,,0.00,weatherlink.com 1.10,2013-07-01 12:33:00,
2013-07-01 06:48:00,59.1,52.0,30.29,WSW,252,0.0,-999.0,78,-99.99,,,0.00,weatherlink.com 1.10,2013-07-01 12:48:00,
2013-07-01 07:03:00,61.6,54.0,30.29,NNE,33,2.0,-999.0,75,-99.99,,,0.00,weatherlink.com 1.10,2013-07-01 13:03:00,
2013-07-01 07:18:00,63.2,53.0,30.30,NE,45,3.0,-999.0,69,-99.99,,,0.00,weatherlink.com 1.10,2013-07-01 13:18:00,
2013-07-01 07:33:00,63.7,52.0,30.30,ENE,63,3.0,-999.0,66,-99.99,,,0.00,weatherlink.com 1.10,2013-07-01 13:33:00,
2013-07-01 07:48:00,64.5,53.0,30.31,NE,46,6.0,-999.0,66,-99.99,,,0.00,weatherlink.com 1.10,2013-07-01 13:48:00,
2013-07-01 08:03:00,63.9,54.0,30.31,ENE,59,8.0,-999.0,69,-99.99,,,0.00,weatherlink.com 1.10,2013-07-01 14:03:00,
2013-07-01 08:18:00,64.4,54.0,30.32,ENE,60,9.0,-999.0,69,-99.99,,,0.00,weatherlink.com 1.10,2013-07-01 14:18:00,
2013-07-01 08:33:00,64.8,54.0,30.32,NE,53,4.0,-999.0,68,-99.99,,,0.00,weatherlink.com 1.10,2013-07-01 14:33:00,
2013-07-01 08:48:00,64.6,54.0,30.33,NE,51,11.0,-999.0,69,-99.99,,,0.00,weatherlink.com 1.10,2013-07-01 14:48:00,
2013-07-01 09:03:00,63.9,54.0,30.34,NE,44,6.0,-999.0,70,-99.99,,,0.00,weatherlink.com 1.10,2013-07-01 15:03:00,
2013-07-01 09:18:00,63.9,54.0,30.34,North,9,7.0,-999.0,71,-99.99,,,0.00,weatherlink.com 1.10,2013-07-01 15:18:00,
2013-07-01 09:33:00,64.1,54.0,30.34,NE,38,13.0,-999.0,70,-99.99,,,0.00,weatherlink.com 1.10,2013-07-01 15:33:00,
2013-07-01 09:48:00,65.2,54.0,30.34,NE,55,12.0,-999.0,67,-99.99,,,0.00,weatherlink.com 1.10,2013-07-01 15:48:00,
2013-07-01 10:03:00,64.9,54.0,30.34,NNW,347,5.0,-999.0,69,-99.99,,,0.00,weatherlink.com 1.10,2013-07-01 16:03:00,
2013-07-01 10:18:00,65.2,53.0,30.34,NE,34,7.0,-999.0,66,-99.99,,,0.00,weatherlink.com 1.10,2013-07-01 16:18:00,
2013-07-01 10:33:00,65.7,54.0,30.34,North,9,5.0,-999.0,65,-99.99,,,0.00,weatherlink.com 1.10,2013-07-01 16:33:00,
2013-07-01 10:48:00,66.4,54.0,30.33,NE,52,7.0,-999.0,64,-99.99,,,0.00,weatherlink.com 1.10,2013-07-01 16:48:00,
2013-07-01 11:03:00,67.0,53.0,30.33,NNE,19,1.0,-999.0,61,-99.99,,,0.00,weatherlink.com 1.10,2013-07-01 17:03:00,
2013-07-01 11:18:00,68.3,55.0,30.33,NE,45,6.0,-999.0,62,-99.99,,,0.00,weatherlink.com 1.10,2013-07-01 17:18:00,
2013-07-01 11:33:00,68.9,55.0,30.33,ENE,78,4.0,-999.0,62,-99.99,,,0.00,weatherlink.com 1.10,2013-07-01 17:33:00,
2013-07-01 11:48:00,70.0,55.0,30.33,NNE,33,5.0,-999.0,59,-99.99,,,0.00,weatherlink.com 1.10,2013-07-01 17:48:00,
2013-07-01 12:03:00,70.7,55.0,30.32,NNE,13,5.0,-999.0,58,-99.99,,,0.00,weatherlink.com 1.10,2013-07-01 18:03:00,
2013-07-01 12:18:00,71.1,56.0,30.32,NE,55,9.0,-999.0,60,-99.99,,,0.00,weatherlink.com 1.10,2013-07-01 18:18:00,
2013-07-01 12:33:00,71.3,55.0,30.32,NNE,32,4.0,-999.0,57,-99.99,,,0.00,weatherlink.com 1.10,2013-07-01 18:33:00,
2013-07-01 12:48:00,72.7,54.0,30.32,NNE,21,6.0,-999.0,53,-99.99,,,0.00,weatherlink.com 1.10,2013-07-01 18:48:00,
2013-07-01 13:03:00,74.6,55.0,30.32,ENE,63,3.0,-999.0,51,-99.99,,,0.00,weatherlink.com 1.10,2013-07-01 19:03:00,
2013-07-01 13:18:00,75.2,55.0,30.32,ENE,60,8.0,-999.0,49,-99.99,,,0.00,weatherlink.com 1.10,2013-07-01 19:18:00,
2013-07-01 13:33:00,76.5,54.0,30.31,East,80,10.0,-999.0,46,-99.99,,,0.00,weatherlink.com 1.10,2013-07-01 19:33:00,
2013-07-01 13:48:00,77.4,53.0,30.31,NNW,336,1.0,-999.0,43,-99.99,,,0.00,weatherlink.com 1.10,2013-07-01 19:48:00,
2013-07-01 14:03:00,76.8,54.0,30.30,NE,49,5.0,-999.0,45,-99.99,,,0.00,weatherlink.com 1.10,2013-07-01 20:03:00,
2013-07-01 14:18:00,78.2,54.0,30.30,SE,134,3.0,-999.0,43,-99.99,,,0.00,weatherlink.com 1.10,2013-07-01 20:18:00,
2013-07-01 14:33:00,76.9,54.0,30.29,NNW,327,6.0,-999.0,45,-99.99,,,0.00,weatherlink.com 1.10,2013-07-01 20:33:00,
2013-07-01 14:48:00,76.2,53.0,30.30,NNE,27,3.0,-999.0,44,-99.99,,,0.00,weatherlink.com 1.10,2013-07-01 20:48:00,
2013-07-01 15:03:00,74.8,55.0,30.30,NNE,22,0.0,-999.0,51,-99.99,,,0.00,weatherlink.com 1.10,2013-07-01 21:03:00,
2013-07-01 15:19:00,75.7,55.0,30.29,East,84,8.0,-999.0,48,-99.99,,,0.00,weatherlink.com 1.10,2013-07-01 21:19:00,
2013-07-01 15:33:00,76.7,54.0,30.28,ENE,59,9.0,-999.0,46,-99.99,,,0.00,weatherlink.com 1.10,2013-07-01 21:33:00,
2013-07-01 15:48:00,77.3,56.0,30.28,ESE,121,1.0,-999.0,48,-99.99,,,0.00,weatherlink.com 1.10,2013-07-01 21:48:00,
2013-07-01 16:03:00,77.4,56.0,30.28,NNE,25,5.0,-999.0,47,-99.99,,,0.00,weatherlink.com 1.10,2013-07-01 22:03:00,
2013-07-01 16:18:00,77.2,52.0,30.29,North,349,4.0,-999.0,42,-99.99,,,0.00,weatherlink.com 1.10,2013-07-01 22:18:00,
2013-07-01 16:33:00,77.0,53.0,30.29,NE,44,6.0,-999.0,43,-99.99,,,0.00,weatherlink.com 1.10,2013-07-01 22:33:00,
2013-07-01 16:48:00,76.3,51.0,30.29,ENE,71,6.0,-999.0,42,-99.99,,,0.00,weatherlink.com 1.10,2013-07-01 22:48:00,
2013-07-01 17:18:00,75.8,55.0,30.28,ENE,57,6.0,-999.0,48,-99.99,,,0.00,weatherlink.com 1.10,2013-07-01 23:18:00,
2013-07-01 17:33:00,75.8,53.0,30.28,ESE,107,5.0,-999.0,45,-99.99,,,0.00,weatherlink.com 1.10,2013-07-01 23:33:00,
2013-07-01 17:48:00,74.6,53.0,30.28,East,84,5.0,-999.0,47,-99.99,,,0.00,weatherlink.com 1.10,2013-07-01 23:48:00,
2013-07-01 18:03:00,75.8,52.0,30.28,ESE,105,3.0,-999.0,44,-99.99,,,0.00,weatherlink.com 1.10,2013-07-02 00:03:00,
2013-07-01 18:18:00,76.8,53.0,30.28,East,90,2.0,-999.0,43,-99.99,,,0.00,weatherlink.com 1.10,2013-07-02 00:18:00,
2013-07-01 18:33:00,76.2,54.0,30.29,East,86,6.0,-999.0,46,-99.99,,,0.00,weatherlink.com 1.10,2013-07-02 00:33:00,
2013-07-01 18:48:00,75.7,54.0,30.29,NE,49,7.0,-999.0,47,-99.99,,,0.00,weatherlink.com 1.10,2013-07-02 00:48:00,
2013-07-01 19:03:00,73.5,54.0,30.29,ENE,57,5.0,-999.0,50,-99.99,,,0.00,weatherlink.com 1.10,2013-07-02 01:03:00,
2013-07-01 19:18:00,72.1,53.0,30.30,ENE,57,5.0,-999.0,51,-99.99,,,0.00,weatherlink.com 1.10,2013-07-02 01:18:00,
2013-07-01 19:33:00,72.3,54.0,30.30,NE,42,3.0,-999.0,52,-99.99,,,0.00,weatherlink.com 1.10,2013-07-02 01:33:00,
2013-07-01 19:48:00,71.2,54.0,30.30,NNE,15,2.0,-999.0,54,-99.99,,,0.00,weatherlink.com 1.10,2013-07-02 01:48:00,
2013-07-01 20:03:00,70.3,54.0,30.29,NW,311,3.0,-999.0,57,-99.99,,,0.00,weatherlink.com 1.10,2013-07-02 02:03:00,
2013-07-01 20:18:00,69.9,54.0,30.29,WNW,291,3.0,-999.0,57,-99.99,,,0.00,weatherlink.com 1.10,2013-07-02 02:18:00,
2013-07-01 20:33:00,69.4,53.0,30.29,WNW,289,2.0,-999.0,56,-99.99,,,0.00,weatherlink.com 1.10,2013-07-02 02:33:00,
2013-07-01 20:48:00,67.9,53.0,30.30,NNW,331,2.0,-999.0,59,-99.99,,,0.00,weatherlink.com 1.10,2013-07-02 02:48:00,
2013-07-01 21:03:00,67.0,51.0,30.30,East,80,3.0,-999.0,56,-99.99,,,0.00,weatherlink.com 1.10,2013-07-02 03:03:00,
2013-07-01 21:18:00,66.4,51.0,30.31,ENE,57,2.0,-999.0,59,-99.99,,,0.00,weatherlink.com 1.10,2013-07-02 03:18:00,
2013-07-01 21:33:00,66.0,51.0,30.32,NW,311,5.0,-999.0,59,-99.99,,,0.00,weatherlink.com 1.10,2013-07-02 03:33:00,
2013-07-01 21:48:00,66.4,51.0,30.32,WNW,303,5.0,-999.0,58,-99.99,,,0.00,weatherlink.com 1.10,2013-07-02 03:48:00,
2013-07-01 22:03:00,66.7,52.0,30.32,WNW,293,3.0,-999.0,59,-99.99,,,0.00,weatherlink.com 1.10,2013-07-02 04:03:00,
2013-07-01 22:18:00,66.3,52.0,30.33,WNW,294,1.0,-999.0,61,-99.99,,,0.00,weatherlink.com 1.10,2013-07-02 04:18:00,
2013-07-01 22:33:00,64.3,53.0,30.34,NNW,343,4.0,-999.0,68,-99.99,,,0.00,weatherlink.com 1.10,2013-07-02 04:33:00,
2013-07-01 22:48:00,62.7,53.0,30.33,North,355,4.0,-999.0,71,-99.99,,,0.00,weatherlink.com 1.10,2013-07-02 04:48:00,
2013-07-01 23:03:00,62.9,51.0,30.33,North,9,0.0,-999.0,66,-99.99,,,0.00,weatherlink.com 1.10,2013-07-02 05:03:00,
2013-07-01 23:18:00,62.7,52.0,30.33,NE,53,2.0,-999.0,68,-99.99,,,0.00,weatherlink.com 1.10,2013-07-02 05:18:00,
2013-07-01 23:33:00,61.7,52.0,30.33,NE,48,0.0,-999.0,71,-99.99,,,0.00,weatherlink.com 1.10,2013-07-02 05:33:00,
2013-07-01 23:48:00,61.1,52.0,30.33,NNW,343,1.0,-999.0,72,-99.99,,,0.00,weatherlink.com 1.10,2013-07-02 05:48:00,